Temperature
13 13 13 12 12 12 12 12 12 12 12 12 12 12 12 12 12 12 12 12 12 12 11 11 11 11 11 11 11 11 11 11 11 12 12 12 12 12 12 12 12 11 11
13 13 12 12 12 12 12 12 12 12 12 12 12 12 12 12 12 12 12 12 11 11 11 11 10 10 10 10 10 10 11 11 11 11 11 11 11 11 11 11 12 11 11
13 12 12 12 12 12 11 12 12 12 12 12 12 12 12 12 11 11 11 11 10 10 10 10 10 10 10 10 10 10 10 10 10 10 10 10 10 10 10 11 11 11 11
12 12 12 12 11 11 12 12 12 12 12 11 11 11 11 11 11 10 10 9 9 9 9 10 10 10 10 10 10 10 9 9 10 10 9 9 9 9 9 9 10 10 11
12 12 11 11 11 11 11 11 11 11 10 10 10 10 10 10 10 9 9 9 9 9 9 9 9 9 9 9 9 9 8 8 8 8 8 8 8 8 8 8 9 9 9
12 11 12 11 11 11 11 10 10 9 9 9 9 9 9 9 9 9 8 8 8 8 8 8 8 8 8 8 8 7 7 7 6 6 6 6 7 7 7 7 8 8 8
11 11 11 11 11 10 10 9 8 8 8 7 7 7 8 8 8 7 7 7 7 7 7 6 6 6 6 6 6 6 6 5 5 4 4 5 5 5 6 6 7 7 7
11 11 11 10 10 9 8 8 7 7 6 6 5 5 5 6 6 6 6 6 6 6 6 5 5 5 5 4 4 4 4 4 3 3 3 3 3 4 4 5 6 6 6
11 10 10 10 9 8 7 6 6 6 5 5 4 4 3 2 2 4 3 4 4 4 4 4 4 3 3 2 2 2 2 2 1 1 1 2 2 3 3 4 4 5 5
10 10 9 9 8 7 6 5 5 5 4 4 4 3 2 1 0 0 1 3 3 3 2 2 2 2 1 0 -0 -0 -1 -1 -1 -0 0 0 1 1 2 2 3 3 4
9 9 8 8 7 6 5 5 4 4 4 3 3 3 2 1 0 -1 -2 -1 0 1 1 1 1 0 -1 -1 -2 -2 -2 -2 -2 -2 -1 -1 -0 0 0 1 1 2 2
9 8 8 7 6 5 4 4 4 3 3 3 2 2 1 -0 -1 -2 -3 -3 -3 -2 -2 -1 -1 -1 -2 -3 -3 -3 -3 -3 -3 -3 -2 -2 -2 -1 -1 -1 -0 0 0
8 7 7 6 5 4 4 3 3 3 3 2 2 1 0 -1 -2 -2 -3 -4 -4 -4 -3 -3 -3 -3 -3 -4 -4 -4 -4 -4 -4 -4 -4 -3 -3 -3 -2 -2 -2 -1 -1
7 7 6 5 4 4 3 3 3 2 2 1 1 0 -1 -1 -2 -3 -4 -5 -5 -4 -4 -4 -4 -4 -5 -5 -5 -5 -5 -5 -5 -5 -5 -4 -4 -4 -3 -3 -3 -3 -2
6 6 5 4 3 3 3 2 2 1 1 1 0 -1 -2 -2 -3 -3 -4 -5 -6 -6 -5 -5 -5 -5 -6 -6 -6 -6 -6 -6 -6 -6 -5 -5 -5 -5 -4 -4 -4 -3 -3
6 5 4 3 3 2 2 1 1 0 0 -0 -1 -2 -3 -4 -4 -4 -4 -5 -6 -7 -7 -6 -6 -6 -6 -6 -6 -6 -6 -6 -6 -6 -6 -6 -5 -5 -5 -4 -4 -4 -4
5 4 3 3 2 2 1 0 -0 -1 -1 -2 -3 -4 -4 -5 -5 -5 -5 -6 -7 -7 -7 -7 -6 -7 -7 -7 -7 -7 -7 -7 -7 -7 -7 -6 -6 -6 -5 -5 -5 -5 -5
4 3 2 2 1 1 0 -1 -1 -2 -2 -3 -4 -4 -5 -5 -6 -6 -6 -7 -7 -7 -7 -7 -7 -7 -7 -7 -7 -7 -7 -7 -8 -8 -7 -7 -7 -7 -6 -6 -6 -6 -6
3 2 1 1 0 -0 -1 -1 -2 -3 -3 -4 -5 -5 -6 -6 -6 -7 -7 -8 -8 -8 -8 -8 -8 -7 -7 -7 -7 -8 -8 -8 -8 -8 -8 -8 -8 -7 -7 -7 -7 -6 -6
2 1 1 0 -0 -1 -1 -2 -2 -3 -4 -5 -5 -6 -6 -7 -7 -8 -8 -8 -8 -8 -8 -8 -8 -7 -7 -7 -8 -8 -8 -9 -9 -9 -9 -9 -8 -8 -8 -8 -8 -8 -7
1 0 -0 -1 -1 -1 -2 -3 -4 -4 -5 -5 -6 -6 -7 -7 -8 -8 -8 -8 -8 -8 -8 -8 -8 -8 -8 -8 -8 -9 -9 -9 -9 -9 -9 -9 -9 -9 -9 -9 -9 -9 -8
0 -0 -1 -1 -2 -2 -3 -3 -5 -5 -6 -6 -7 -7 -7 -8 -8 -8 -8 -8 -8 -8 -8 -8 -8 -8 -8 -9 -9 -9 -9 -9 -9 -9 -10 -10 -10 -10 -10 -9 -9 -9 -8
-0 -1 -1 -2 -2 -3 -3 -4 -5 -6 -6 -7 -7 -8 -8 -9 -9 -9 -9 -9 -8 -8 -8 -8 -9 -9 -9 -9 -9 -9 -10 -10 -10 -10 -10 -10 -10 -10 -10 -10 -9 -9 -9
-1 -2 -2 -3 -3 -4 -4 -5 -6 -7 -7 -7 -8 -8 -9 -9 -9 -9 -9 -8 -8 -9 -9 -9 -9 -9 -10 -10 -10 -10 -10 -10 -10 -10 -10 -11 -10 -10 -10 -10 -9 -9 -8
-2 -2 -3 -3 -4 -5 -5 -6 -7 -8 -8 -8 -8 -9 -9 -9 -9 -9 -8 -9 -9 -9 -10 -10 -10 -10 -10 -10 -10 -10 -11 -11 -11 -11 -10 -11 -11 -11 -10 -9 -8 -8 -8
-3 -3 -3 -4 -5 -5 -6 -8 -8 -8 -9 -8 -9 -9 -9 -9 -9 -9 -9 -9 -10 -10 -10 -10 -10 -10 -10 -10 -11 -11 -11 -11 -11 -11 -10 -11 -11 -11 -10 -9 -9 -9 -8
Wind_Speed
3 2 2 2 2 2 2 2 3 3 4 5 6 5 5 6 7 8 9 13 16 17 17 18 17 18 18 18 18 18 18 18 19 20 21 23 27 29 31 31 32 32 33
4 4 4 4 4 6 6 5 5 5 5 5 7 6 6 7 8 10 11 12 14 16 17 18 19 19 19 19 19 19 19 19 19 20 21 22 22 24 27 30 33 34 34
9 6 6 6 5 8 8 7 7 5 6 7 7 8 6 6 7 8 9 10 11 14 18 20 21 21 21 21 21 21 21 21 21 21 22 22 22 22 23 24 26 30 33
13 8 7 6 7 9 6 5 6 5 6 6 6 6 6 6 6 6 7 8 10 11 15 20 22 22 22 23 23 23 23 23 24 24 24 24 23 23 23 22 23 24 26
14 10 6 5 8 6 6 5 5 4 5 7 7 6 7 6 5 4 5 6 8 10 12 18 22 23 23 24 24 24 24 24 24 25 25 26 26 25 25 25 24 23 23
14 11 6 7 7 6 6 5 5 5 3 6 6 7 7 5 2 3 6 5 7 12 14 17 17 20 23 24 25 26 26 26 26 26 27 27 27 27 27 27 26 25 25
14 10 6 6 6 6 6 6 5 5 4 5 4 5 6 5 4 4 7 6 7 10 14 17 17 16 15 23 24 27 27 27 27 27 27 27 28 28 28 28 28 27 26
12 10 7 6 6 6 7 7 6 4 4 4 3 3 5 6 5 8 6 5 7 7 10 13 14 13 14 15 21 28 28 28 28 27 27 28 28 29 29 29 28 28 27
12 11 8 6 6 6 5 5 5 4 4 3 3 3 3 4 6 4 4 4 6 8 7 6 9 12 16 15 16 21 26 27 28 28 29 29 30 30 30 30 30 29 28
11 11 9 7 5 5 5 4 4 3 3 3 3 2 2 4 4 6 5 5 7 8 8 10 8 9 13 14 17 22 25 27 29 31 31 31 31 31 31 32 32 31 31
8 8 8 6 5 4 4 4 4 4 3 2 3 3 3 3 5 5 9 8 8 7 7 8 7 7 10 12 11 18 26 29 30 31 31 31 31 31 32 32 32 32 32
5 6 6 5 4 4 4 4 4 5 4 4 4 3 3 3 5 5 9 14 11 8 8 8 8 8 8 10 15 25 29 30 30 31 31 32 32 32 32 32 33 33 33
3 3 3 3 3 3 4 4 4 5 4 5 5 4 4 4 4 6 11 16 17 10 7 6 7 7 9 10 13 25 26 29 30 32 33 34 34 33 33 33 32 32 33
2 2 3 3 4 5 5 4 4 5 5 6 7 6 4 5 5 6 9 14 18 13 8 7 5 7 7 8 15 25 19 28 30 32 34 35 35 34 33 33 32 31 32
2 3 3 4 4 5 5 5 4 6 6 6 6 5 4 5 6 7 7 8 11 19 19 10 6 6 6 7 16 15 13 25 31 33 34 34 34 34 34 33 32 32 32
3 3 4 5 5 6 6 6 6 7 7 6 5 6 6 6 7 7 7 7 9 13 18 14 11 8 9 13 20 15 14 29 30 32 33 34 33 34 34 34 34 33 33
3 4 5 5 6 7 7 7 8 8 8 7 7 7 8 8 7 7 8 8 9 10 17 19 15 11 10 11 13 9 13 11 15 29 33 34 35 35 35 34 34 34 34
3 4 5 6 7 8 8 8 9 9 8 8 9 8 8 9 9 9 9 10 11 11 14 20 19 15 13 12 12 11 13 15 12 26 32 33 34 34 34 34 35 35 35
4 5 6 7 7 8 8 8 8 8 9 9 9 8 9 9 11 10 12 12 11 13 11 16 19 17 14 12 12 14 14 11 16 21 27 30 32 34 35 35 35 35 35
5 6 6 7 8 8 8 8 8 9 9 9 8 9 9 10 12 12 13 11 12 13 13 15 17 16 14 11 11 14 15 10 13 17 22 25 28 32 33 34 34 34 34
6 6 7 8 8 8 9 12 10 9 9 9 9 8 10 16 21 18 17 15 15 15 16 16 17 17 15 14 14 14 18 16 13 12 13 13 14 14 16 25 29 32 33
6 6 7 8 9 10 18 21 17 10 9 9 10 9 11 14 19 26 29 28 26 21 19 19 18 18 18 16 16 17 18 19 17 8 11 15 13 15 13 12 25 32 33
6 7 8 8 9 11 20 21 22 14 9 9 10 11 14 16 20 14 22 27 24 29 28 20 19 18 20 19 20 21 19 19 20 15 15 18 12 15 14 18 31 33 34
5 6 7 8 8 11 20 21 23 11 9 10 10 11 12 13 16 21 19 18 16 15 19 16 14 17 17 17 17 19 19 19 17 13 13 17 15 15 17 14 28 33 34
6 6 7 8 8 11 18 21 22 9 9 11 10 11 14 13 25 31 22 19 17 14 21 25 26 25 29 30 24 16 15 15 17 16 11 13 16 16 16 16 20 29 31
6 7 7 8 8 9 16 21 22 8 10 11 10 10 18 23 29 30 19 15 16 17 17 17 19 21 18 19 24 16 14 15 16 14 10 9 14 13 11 10 10 11 15
Wind_Direction
153 133 93 56 21 7 2 3 358 1 2 359 360 351 339 337 337 338 334 336 341 344 344 338 332 327 324 320 317 314 311 305 300 296 290 281 271 263 258 255 255 252 249
112 94 71 54 41 40 44 44 31 26 18 7 359 349 342 344 344 345 345 351 358 6 12 11 7 2 355 348 341 336 332 329 324 319 311 304 297 288 277 266 259 256 253
90 81 69 55 42 43 45 44 28 28 21 8 351 341 339 341 343 344 353 7 9 13 17 14 9 5 359 354 347 342 338 335 333 330 326 320 314 306 299 291 281 271 262
85 78 69 57 50 48 39 40 24 18 14 359 339 327 329 333 339 351 7 13 10 13 13 9 6 1 355 349 343 339 336 333 330 327 324 320 315 311 307 302 297 292 284
81 80 70 56 55 50 36 32 29 22 8 351 328 318 318 323 330 7 7 6 6 10 11 5 2 356 350 345 342 339 335 331 327 323 320 316 313 309 305 301 299 297 295
76 75 66 50 50 48 34 23 17 13 9 344 326 317 305 310 326 6 1 360 4 6 7 2 356 348 345 344 342 338 334 330 325 321 317 314 310 307 302 299 295 293 292
69 65 60 48 45 50 39 25 10 5 355 349 343 320 316 328 350 338 352 356 359 1 358 352 345 336 338 339 337 334 330 326 322 318 315 312 309 305 302 298 294 291 289
65 65 59 56 48 46 36 29 24 9 348 5 349 329 335 333 342 334 319 343 352 351 337 335 327 327 333 329 328 329 326 323 320 317 314 312 309 305 302 299 295 292 289
67 64 61 60 51 48 34 21 25 25 347 333 356 41 3 314 311 297 313 331 338 320 315 320 313 321 321 322 321 322 321 319 317 315 311 308 305 303 301 299 296 294 292
67 62 59 58 49 41 29 7 22 2 353 339 334 29 240 249 290 307 303 302 305 306 299 305 304 301 305 307 310 316 316 316 314 310 308 305 303 301 299 297 296 294 293
60 59 57 50 38 26 15 4 355 350 338 324 319 308 292 264 238 268 297 306 305 295 292 288 287 287 294 297 299 308 316 313 309 307 305 303 301 300 298 296 295 294 293
52 44 50 41 27 11 356 346 339 339 330 324 316 307 304 299 305 292 300 308 304 294 285 283 286 286 288 296 305 312 311 308 307 305 303 301 299 298 297 296 294 292 290
63 34 37 28 11 349 343 344 339 332 325 327 313 300 293 285 294 303 309 310 307 300 272 258 259 270 289 295 301 305 304 304 304 303 301 299 298 297 295 292 290 289 288
112 58 39 19 2 354 350 344 330 321 322 315 317 311 303 301 304 305 306 310 310 305 291 275 256 251 265 272 284 299 299 299 299 299 298 297 296 294 291 288 287 287 287
94 54 29 9 355 349 341 335 319 310 309 305 305 305 306 301 301 296 296 298 302 307 305 298 288 256 256 266 285 292 282 292 296 296 296 295 293 291 288 286 285 286 286
59 34 11 358 349 339 329 321 311 303 304 304 301 304 302 299 299 296 293 291 287 292 297 300 299 286 280 293 295 292 286 293 295 296 295 293 292 291 289 287 285 285 285
41 18 357 346 336 323 316 310 303 303 302 299 296 301 294 297 301 302 297 292 288 286 293 299 300 297 285 280 286 271 277 275 283 292 294 293 292 290 288 286 285 285 285
19 358 345 334 323 317 309 304 303 309 300 294 291 290 290 306 304 303 298 293 291 284 287 296 301 303 295 289 287 281 293 292 287 292 293 293 293 292 291 289 288 286 285
0 348 339 326 317 312 307 302 298 296 292 288 286 284 288 297 301 301 297 294 292 294 290 295 298 299 297 296 296 295 290 285 290 292 293 292 290 290 289 288 287 286 285
352 342 332 322 315 311 305 301 301 298 293 288 282 279 283 290 295 299 300 294 299 301 297 295 295 297 298 296 295 301 301 288 288 290 288 287 288 289 288 288 288 286 285
349 337 329 322 319 317 318 321 314 309 303 299 292 284 287 304 309 309 308 309 307 302 302 302 301 301 302 305 304 303 301 299 288 284 285 284 285 281 281 282 282 282 280
340 335 325 317 318 328 328 330 330 318 312 311 309 303 300 305 308 314 312 308 306 306 306 304 303 304 305 303 303 302 302 302 300 290 286 290 285 282 279 274 278 279 278
328 322 314 311 309 316 332 333 331 333 326 316 310 308 312 314 315 302 302 306 305 303 304 304 303 302 302 304 304 304 302 300 297 298 296 293 286 284 282 280 283 282 280
313 307 303 304 307 319 334 333 332 335 315 305 300 298 299 302 307 310 308 308 303 303 302 302 297 299 302 302 301 302 300 298 294 290 287 290 292 288 287 281 283 281 280
306 297 297 303 307 314 328 330 330 313 307 302 296 298 307 306 308 314 317 314 314 310 311 310 310 309 308 309 308 307 305 303 301 298 291 286 291 292 288 283 279 279 279
292 297 302 303 301 299 318 328 327 309 310 310 305 299 312 315 315 320 322 321 318 314 316 318 315 310 306 305 309 307 303 299 298 299 293 286 293 299 295 272 264 270 275
Height
1503 1503 1503 1503 1502 1501 1499 1498 1497 1496 1494 1493 1491 1489 1487 1485 1483 1481 1479 1477 1475 1472 1470 1469 1467 1466 1465 1463 1462 1461 1459 1458 1456 1455 1454 1453 1452 1452 1451 1451 1452 1452 1453
1502 1502 1502 1501 1500 1499 1498 1497 1495 1493 1492 1490 1488 1486 1484 1482 1480 1477 1475 1472 1470 1468 1466 1464 1462 1461 1459 1458 1457 1455 1454 1452 1450 1449 1447 1446 1445 1444 1443 1443 1443 1443 1444
1501 1501 1501 1500 1499 1498 1497 1495 1493 1491 1489 1487 1484 1482 1480 1478 1475 1472 1470 1468 1466 1464 1462 1460 1458 1457 1455 1453 1452 1450 1448 1446 1444 1442 1441 1439 1438 1437 1435 1435 1434 1434 1434
1500 1500 1499 1499 1498 1497 1495 1493 1491 1488 1485 1482 1480 1477 1475 1473 1470 1468 1466 1464 1462 1460 1458 1456 1454 1452 1450 1448 1446 1443 1441 1439 1437 1435 1434 1432 1431 1429 1428 1427 1426 1425 1424
1499 1499 1498 1497 1496 1495 1493 1490 1487 1484 1481 1478 1475 1473 1470 1468 1465 1464 1462 1461 1459 1457 1454 1451 1449 1446 1444 1441 1439 1436 1434 1432 1429 1428 1426 1424 1423 1422 1421 1420 1418 1417 1416
1498 1498 1497 1496 1494 1492 1490 1487 1484 1480 1477 1473 1471 1468 1465 1463 1461 1460 1459 1457 1455 1452 1449 1446 1443 1440 1437 1434 1431 1428 1426 1423 1421 1419 1418 1416 1414 1413 1412 1411 1410 1409 1408
1497 1496 1495 1494 1492 1489 1486 1483 1480 1477 1474 1469 1466 1461 1460 1459 1456 1456 1455 1453 1450 1447 1443 1440 1437 1433 1430 1426 1424 1421 1418 1415 1413 1411 1410 1408 1406 1404 1403 1402 1401 1400 1399
1495 1495 1493 1492 1489 1486 1483 1480 1477 1474 1471 1467 1463 1458 1455 1453 1452 1451 1448 1445 1443 1440 1437 1433 1430 1427 1423 1419 1416 1413 1410 1407 1405 1404 1402 1400 1398 1396 1394 1393 1392 1391 1390
1494 1493 1491 1489 1487 1484 1481 1478 1475 1472 1469 1466 1463 1461 1456 1451 1445 1441 1440 1437 1435 1432 1429 1426 1423 1420 1416 1413 1409 1406 1403 1400 1397 1395 1393 1391 1389 1387 1385 1384 1382 1381 1379
1492 1491 1489 1487 1484 1481 1479 1476 1473 1470 1467 1464 1461 1459 1457 1453 1447 1437 1432 1430 1428 1424 1422 1419 1416 1413 1409 1406 1402 1399 1396 1393 1390 1387 1385 1383 1380 1378 1376 1374 1372 1370 1368
1490 1488 1486 1484 1481 1479 1476 1474 1471 1468 1465 1461 1458 1455 1452 1449 1445 1439 1427 1421 1419 1417 1414 1412 1408 1405 1402 1398 1395 1392 1389 1385 1382 1379 1376 1374 1371 1368 1366 1363 1361 1359 1357
1487 1486 1484 1481 1479 1476 1474 1471 1468 1465 1462 1459 1455 1451 1448 1444 1440 1434 1425 1416 1411 1408 1406 1404 1401 1398 1395 1391 1388 1384 1380 1377 1373 1370 1367 1364 1361 1358 1355 1352 1350 1348 1346
1485 1483 1481 1479 1476 1474 1471 1468 1465 1462 1458 1455 1451 1447 1443 1440 1436 1431 1423 1412 1403 1398 1396 1394 1393 1391 1388 1385 1380 1377 1372 1369 1365 1361 1357 1354 1351 1347 1344 1341 1339 1337 1334
1482 1480 1478 1476 1473 1471 1468 1465 1462 1458 1454 1450 1446 1442 1438 1434 1430 1426 1420 1411 1398 1388 1387 1385 1384 1382 1380 1377 1373 1369 1364 1360 1356 1352 1348 1344 1340 1336 1333 1330 1328 1325 1323
1479 1478 1475 1473 1471 1468 1464 1461 1457 1453 1449 1445 1440 1436 1432 1428 1423 1419 1414 1409 1402 1387 1374 1375 1374 1372 1370 1367 1364 1360 1355 1351 1347 1342 1338 1333 1329 1325 1321 1318 1316 1313 1311
1477 1475 1472 1470 1467 1464 1460 1456 1452 1448 1444 1439 1435 1430 1425 1421 1415 1411 1406 1402 1397 1390 1375 1366 1364 1363 1360 1358 1355 1351 1346 1341 1337 1332 1327 1322 1317 1313 1309 1306 1303 1301 1298
1473 1471 1469 1466 1463 1460 1456 1451 1447 1442 1438 1433 1429 1424 1419 1414 1408 1403 1399 1394 1390 1385 1375 1361 1357 1353 1350 1346 1342 1339 1335 1330 1325 1321 1316 1310 1305 1301 1297 1293 1290 1288 1285
1470 1468 1466 1463 1459 1455 1451 1446 1441 1437 1432 1427 1423 1418 1413 1408 1402 1397 1392 1386 1382 1378 1371 1360 1350 1345 1341 1337 1332 1328 1324 1320 1315 1310 1304 1299 1293 1289 1285 1281 1278 1275 1272
1467 1465 1462 1459 1455 1450 1446 1441 1436 1431 1426 1422 1417 1412 1407 1402 1395 1390 1385 1380 1375 1370 1365 1357 1346 1339 1333 1329 1323 1317 1313 1308 1303 1298 1292 1287 1282 1277 1273 1269 1265 1262 1258
1464 1461 1458 1454 1450 1445 1440 1435 1430 1425 1421 1416 1412 1407 1402 1396 1390 1384 1379 1374 1369 1362 1356 1348 1340 1332 1326 1321 1316 1308 1300 1295 1290 1285 1280 1275 1270 1265 1261 1256 1252 1248 1244
1461 1458 1454 1450 1445 1440 1435 1430 1425 1420 1415 1410 1406 1401 1396 1391 1386 1381 1375 1368 1362 1355 1348 1341 1333 1325 1319 1313 1307 1300 1291 1284 1278 1274 1267 1262 1258 1251 1247 1242 1238 1234 1230
1457 1454 1449 1445 1440 1435 1430 1425 1420 1415 1410 1404 1399 1394 1389 1384 1379 1374 1368 1362 1356 1350 1341 1334 1326 1319 1312 1306 1299 1292 1284 1275 1266 1265 1258 1250 1247 1239 1234 1230 1225 1221 1218
1453 1449 1445 1440 1435 1430 1425 1420 1415 1410 1404 1399 1393 1388 1382 1377 1372 1365 1358 1353 1348 1342 1337 1330 1320 1313 1305 1298 1292 1284 1277 1269 1260 1254 1249 1238 1234 1228 1222 1217 1213 1209 1205
1449 1445 1440 1436 1431 1425 1420 1415 1410 1404 1398 1393 1388 1383 1377 1370 1364 1358 1351 1344 1338 1332 1327 1321 1314 1306 1299 1292 1286 1278 1269 1260 1251 1246 1242 1231 1222 1216 1210 1203 1198 1194 1190
1445 1441 1436 1431 1426 1421 1415 1410 1404 1398 1392 1387 1382 1377 1372 1365 1358 1352 1345 1337 1329 1323 1318 1312 1306 1299 1291 1284 1278 1270 1262 1254 1244 1235 1232 1225 1214 1206 1198 1190 1185 1182 1178
1441 1436 1432 1427 1421 1416 1410 1405 1400 1394 1387 1380 1375 1370 1366 1359 1352 1346 1339 1331 1322 1315 1308 1301 1295 1288 1281 1275 1270 1264 1257 1249 1240 1229 1222 1217 1207 1200 1187 1178 1174 1170 1165